Regional Weather Roundup
Issued by NWS Wakefield, VA

Home | Current Version | Previous Version | Text Only | Print | Product List | Glossary On
Versions: 1 2 3 4 5 6 7 8 9 10 11 12 13 14 15 16 17 18 19 20 21 22 23 24 25 26 27 28 29 30 31 32 33 34 35 36 37 38 39 40 41 42 43 44 45 46 47 48 49 50
000
ASUS41 KAKQ 291315
RWRAKQ

REGIONAL WEATHER ROUNDUP
NATIONAL WEATHER SERVICE WAKEFIELD VA
900 AM EDT SUN MAY 29 2016

Note: "fair" indicates few or no clouds below 12,000 feet with no
significant weather and/or obstructions to visibility. * = Denotes
station may not report precipitation (e.g., rain,snow,etc.),
thunder or fog.

VAZ042-051-052>054-056-291400-
NORTHERN VIRGINIA

CITY           SKY/WX    TMP DP  RH WIND       PRES   REMARKS
WASH NATIONAL  PTSUNNY   73  66  78 S7        30.15F
DULLES         PTSUNNY   73  64  73 S6        30.15S
FORT BELVOIR   FAIR      73  66  77 VRB2      30.15S
QUANTICO       FAIR      71  65  81 S3        30.16S
FREDERICKSBRG* FAIR      72  69  88 CALM      30.14S
STAFFORD*      FAIR      72  65  77 CALM      30.19S
WARRENTON      FAIR      75  63  66 S3        30.15S
CULPEPER*      FAIR      73  67  81 CALM      30.16S
MANASSAS*      SUNNY     72  68  88 S5        30.15S
LEESBURG*      FAIR      73  68  83 CALM      30.16S
WINCHESTER     FAIR      73  63  68 S3        30.15S
FRONT ROYAL*   FAIR      70  63  78 CALM      30.15R
LURAY*         FAIR      68  66  94 W3        30.17R
$$

VAZ048-049-060>072-079>083-291400-
CENTRAL AND SOUTH CENTRAL VIRGINIA

CITY           SKY/WX    TMP DP  RH WIND       PRES   REMARKS
RICHMOND       FAIR      74  67  78 CALM      30.14S
CHESTERFIELD*  FAIR      75  59  57 CALM      30.15F
PETERSBURG*    FAIR      74  73  96 CALM      30.15S
HANOVER        FAIR      75  66  73 CALM      30.16S
TAPPAHANNOCK*  FAIR      75  71  88 E6        30.15S
QUINTON*       PTSUNNY   71  69  90 CALM      30.14S
CHARLOTTSVILLE FAIR      70  63  78 CALM      30.16R
GORDONSVILLE*  FAIR      73  66  80 SW5       30.15S
ORANGE*        FAIR      75  68  78 CALM      30.17R
LOUISA*        FAIR      75  70  83 SW6       30.15R
BUMPASS*       FAIR      73  67  82 W5        30.15S
FARMVILLE*     LGT RAIN  69  69  99 CALM      30.15R
CREWE*         FAIR      71  71 100 CALM      30.15S
FORT PICKETT*  NOT AVBL
CHASE CITY*    CLOUDY    69  67  94 CALM      30.15R
CLARKSVILLE*   CLOUDY    70  70 100 CALM      30.14R
SOUTH HILL*    CLOUDY    71  68  88 E3        30.19S
LAWRENCEVILLE* CLOUDY    71  69  92 NE3       30.14R
EMPORIA*         N/A     72  68  88 CALM      30.14S
$$

VAZ088>098-291400-
SOUTHEAST VIRGINIA

CITY           SKY/WX    TMP DP  RH WIND       PRES   REMARKS
NORFOLK        PTSUNNY   77  71  82 SE8       30.13S
VIRGINIA BEACH PTSUNNY   80  71  74 SE6       30.13R
NORFOLK NAVAL  PTSUNNY   78  72  81 E9        30.15R
WEST POINT*    CLOUDY    72  71  97 CALM      30.16S
SALUDA*        CLOUDY    74  72  94 E3        30.14S
NEWPORT NEWS   PTSUNNY   77  72  84 E6        30.14S
LANGLEY AFB    FAIR      77  72  83 E5        30.14S
FORT EUSTIS    PTSUNNY   78  68  72 NW5       30.12S
WILLIAMSBURG*  FAIR      77  73  88 S6        30.15S
HR EXEC AP*    PTSUNNY   79  73  83 E8        30.15S
FRANKLIN*      CLOUDY    73  70  89 E5        30.13F
US460-WAKEFLD  FAIR      76  70  82 E3        30.13S
$$

VAZ020-022-025-037-045-291400-
WEST CENTRAL AND SOUTHWEST VIRGINIA

CITY           SKY/WX    TMP DP  RH WIND       PRES   REMARKS
STAUNTON*      FAIR      68  63  82 CALM      30.19F
WAYNESBORO*    FAIR      72  60  66 CALM      30.19S
HOT SPRINGS VA CLOUDY    65  57  73 W3        30.26S
LYNCHBURG      CLOUDY    69  63  81 CALM      30.19R
DANVILLE       LGT RAIN  68  65  90 N6        30.15S
SOUTH BOSTON*  CLOUDY    69  68  95 N6        30.15R
MARTINSVILLE   DRIZZLE   64  62  96 CALM      30.20S
ROANOKE        CLOUDY    67  63  87 CALM      30.21R
BLACKSBURG     CLOUDY    66  61  86 SE3       30.25R
DUBLIN*        CLOUDY    66  63  89 CALM      30.24R
MARION*        CLOUDY    64  61  93 CALM      30.26S
HILLSVILLE*    DRIZZLE   63  60  91 CALM      30.23R
RICHLANDS*     CLOUDY    62  62 100 CALM      30.23F
WISE*          FAIR      70  52  52 CALM      30.23S
ABINGDON*      CLOUDY    67  61  80 SE5       30.22R
$$

MDZ021>025-VAZ099-100-291400-
SOUTHERN MARYLAND AND THE DELMARVA PENINSULA

CITY           SKY/WX    TMP DP  RH WIND       PRES   REMARKS
PATUXENT RIVER PTSUNNY   72  67  84 SE7       30.15S
BAY BRIDGE APT MOSUNNY   73  68  83 SE5       30.15F
LEONARDTOWN    SUNNY     73  66  78 CALM      30.17S
DOVER          MOSUNNY   74  72  96 SE5       30.15F
GEORGETOWN     SUNNY     74  69  85 CALM      30.17S
EASTON         SUNNY     73  72  94 CALM      30.19
CAMBRIDGE        N/A     72  68  88 CALM      30.15S
SALISBURY      SUNNY     76  71  85 VRB5      30.16S
OCEAN CITY     CLOUDY   N/A N/A N/A S3        30.17S
WALLOPS ISLAND FAIR      75  71  87 SE8       30.16S
ACCOMACK*      FAIR      77  68  73 SE6       30.15S
$$

NCZ012>017-030>032-291400-
NORTH CENTRAL AND EASTERN NORTH CAROLINA

CITY           SKY/WX    TMP DP  RH WIND       PRES   REMARKS
ROANOKE RAPIDS RAIN      70  68  94 CALM      30.12S
RALEIGH        RAIN      70  69  97 NE7       30.11R FOG
ELIZABETH CITY PTSUNNY   78  73  84 E10       30.13R
AHOSKIE*       CLOUDY    72  69  91 CALM      30.12S
EDENTON*       PTSUNNY  N/A N/A N/A E8        30.13R
CURRITUCK*     MOSUNNY   79  73  84 E3        30.14S
KILL DEVIL HLS PTSUNNY   78  74  87 E5        30.12S
MANTEO         NOT AVBL
CAPE HATTERAS  LGT RAIN  75  73  93 SE13      30.11S
TARBORO*       RAIN      73  71  94 E3        30.12R
GOLDSBORO      LGT RAIN  73  73 100 E8        30.07R
WASHINGTON     CLOUDY    73  71  96 E10       30.10R
GREENVILLE     LGT RAIN  72  72 100 E10       30.11S
NEW BERN       LGT RAIN  73  71  93 E5        30.09F FOG
WILMINGTON     PTSUNNY   77  73  87 SE7       30.03S
$$

VAZ048-291400-
ELSEWHERE

CITY           SKY/WX    TMP DP  RH WIND       PRES   REMARKS
HARRISBURG PA  MOSUNNY   74  62  66 SE3       30.14S
BALTIMORE      MOSUNNY   74  64  71 S6        30.14F
ANNAPOLIS      SUNNY     70  66  87 SE8       30.14F
ANDREWS AFB    FAIR      74  66  75 SW3       30.15S
PHILADELPHIA   CLOUDY    73  62  68 SW6       30.16F
HENDERSON NC   LGT RAIN  67  66  95 NE3       30.14R
GREENSBORO     LGT RAIN  67  65  93 N6        30.14R FOG
ROCKY MOUNT    CLOUDY    73  72  96 VRB6      30.11R
$$

VAZ100-291400-
MARINE

STATION/POSITION TIME  TEMP    WIND        PRES    WAVE   SWELL
                       AIR SEA DIR/SP/G            HT/PER HT/PER
                 (UTC) (F)     (DEG/KT/KT) (MB)    (FT/S) (FT/S)
BRANDYWINE LGT   1200   63     160/  6/  6 1021.8R
CAPE MAY NJ      1200   68 67  130/  4/  4 1021.4R
LEWES DE         1200   67 63  360/  2/  2 1021.5R
15NM E FENWICK I 1250   65 63              1021.7R   2/ 8
OCEAN-CITY-INLET 1200   65 61   CALM  /  1 1021.8R
WACHAPREAGUE VA  1200   72 77   80/  2/  4 1020.7R
THOMAS POINT MD  1300   68 67  150/  3/  3 1022.4F
GOOSES REEF MD   1300   70 68   90/  2/  2 1022.0F   2
COVE POINT MD    1200   72      CALM  /  1 1021.6S
SOLOMONS ISLAND  1200   73 67   CALM  /  1   N/A
BISHOPS HEAD MD  1200   70 73  120/  5/  6 1021.0S
PINEY POINT MD   1200          140/  3/  3   N/A
POTOMAC MD       1300   70 70  120/  6/  6 1020.0S   0
CAMBRIDGE MD     1200   68 69   60/  2/  3 1020.3S
LEWISETTA VA     1200   69 65  110/  3/  3 1020.6R
RAPPAHANNOCK LGT 1200           90/  5/  5 1021.4R
STINGRAY PT      1200   71 68  130/  2/  4 1021.2R   0
YORK RVR RNG VA  1200   71     130/  5/  5 1020.0R
YORKTOWN VA      1200   71 71   90/  4/  5 1020.3S
JAMESTOWN VA     1300   73 75  160/  2/  4   N/A     0
DOMINION TERM VA 1200   69      60/  6/  8 1020.4S
KIPTOPEKE VA     1200      69  100/  7/  8   N/A
CHES BAY BRIDGE  1200   69 67   80/  5/  7 1020.3F
CAPE HENRY VA    1200   70     110/  6/  9   N/A
CHESAPEAKE LGHT  1200   70     100/ 11/ 11 1021.0F
WILLOUBY STN VA  1200   69      90/  5/  6 1021.3S
CAPE HENRY BUOY  1212      68                N/A     3/ 8
1ST LANDING BUOY 1300   71 69  100/  6/  8 1020.8R   1/ 5
CAPE CHARLES BUO 1226      69                N/A     3/ 8   2/ 8
OFFSHORE WE BUOY 1221      70                N/A     3/ 8   3/ 8
64NM E OF VA BCH 1250   69 63   80/  6/  8 1020.8R   3/ 5   3/ 5
DUCK PIER NC     1200   71 64   90/  5/  7 1019.5R
44100 DUCK FRF   1224      70                N/A     3/ 8
44056 DUCK FRF   1211      68                N/A     2/ 6
OREGON INLET NC  1200   75 70  110/  6/  8 1019.7R
HATTERAS NC      1200   75 77  120/ 12/ 15 1018.8R
DIAMOND SHLS NC  1250   79 75  150/ 19/ 23 1019.3R   5/ 6   2/15
CAPE LOOKOUT NC1F1C2F2C3F3C4F4C5F5C6F6C7F7C8M1C9!


USA.gov is the U.S. government's official web portal to all federal, state and local government web resources and services.